HORYU-4

Last updated on Thu Nov 06 2025 00:03:48 GMT+0000 (Coordinated Universal Time)

1 41340U 16012D 25309.03860612 .00040213 00000+0 78455-3 0 9998 2 41340 30.9941 207.9820 0004290 211.6509 148.3882 15.46239926535708
UTC large
Height (km)
Speed (km/s)
/
Latitude / Longitude
Inclination (degrees)
Orbital Period (minutes)
Azimuth
Elevation
Range (km)
Doppler Factor

Next 0 passes for location: London (51.5072 / 0.1276)

Sorry there are no passes over London.